Skip Page Navigation
NASA JPL Caltech
NASA Logo - Jet Propulsion Laboratory + View the NASA Portal
+ Center for Near-Earth Object Studies
JPL Home Earth Solar System Stars & Galaxies Technology
JPL Solar System Dynamics
BODIES ORBITS EPHEMERIDES TOOLS PHYSICAL DATA DISCOVERY FAQ SITE MAP
IMPORTANT: The SSD Announcement email list is now available. Major changes are coming in the near future, including possible hostname and/or URL changes. To be notified of such changes, subscribe to this email list.

Please visit this page for more details.


JPL Small-Body Database Browser
Search: [ help ]  
347569 (2000 WK130)
Classification: Main-belt Asteroid          SPK-ID: 2347569
Ephemeris | Orbit Diagram | Orbital Elements | Mission Design | Physical Parameters | Discovery Circumstances ]

[ show orbit diagram ]
Orbital Elements at Epoch 2459000.5 (2020-May-31.0) TDB
Reference: JPL 8 (heliocentric ecliptic J2000)
 Element Value Uncertainty (1-sigma)   Units 
e .1887672446478887 1.2676e-07  
a 2.517669126849728 4.207e-08 au
q 2.042415662839249 3.4075e-07 au
i 11.91129903779781 1.1722e-05 deg
node 257.8022891841022 5.3137e-05 deg
peri 74.65278309500428 6.4903e-05 deg
M 43.02956317155751 4.3835e-05 deg
tp 2458826.094231634701
(2019-Dec-08.59423163)
0.00017749 TDB
period 1459.138136289733
3.99
3.6573e-05
1.001e-07
d
yr
n .2467209862086127 6.184e-09 deg/d
Q 2.992922590860207 5.0012e-08 au
  Orbit Determination Parameters
   # obs. used (total)      173  
   data-arc span      6827 days (18.69 yr)  
   first obs. used      2000-11-19  
   last obs. used      2019-07-30  
   planetary ephem.      DE431  
   SB-pert. ephem.      SB431-N16  
   condition code      0  
   norm. resid. RMS      .61516  
   source      ORB  
   producer      Otto Matic  
   solution date      2019-Sep-24 06:33:43  

Additional Information
 Earth MOID = 1.06924 au 
 Jupiter MOID = 2.43811 au 
 T_jup = 3.404 
[ show covariance matrix ]

Ephemeris | Orbit Diagram | Orbital Elements | Mission Design | Physical Parameters | Discovery Circumstances ]

Physical Parameter Table
Parameter Symbol Value Units Sigma Reference Notes
absolute magnitude H 15.5   n/a MPO476609  

347569 (2000 WK130)          Discovered 2000-Nov-19 by Spacewatch at Kitt Peak
Reference: 20121228/Numbers.arcLast Updated: 2013-01-02
Ephemeris | Orbit Diagram | Orbital Elements | Mission Design | Physical Parameters | Discovery Circumstances ]
ABOUT SSD CREDITS/AWARDS PRIVACY/COPYRIGHT GLOSSARY LINKS
FirstGov 2020-Feb-27 13:02 UT
(server date/time)  
NASA Home Page
Site Manager:   Ryan S. Park
Webmaster  Alan B. Chamberlin